Showing default

QIANFAN-150, 69109

Orbit data source: Space-Track

QIANFAN-150, 69109 is a Chinese payload satellite in LEO that was launched on Sun, 17 May 2026 UTC via a CHANG ZHENG 8 launch vehicle from the Wenchang Satellite Launch Center (WSC). Payload-class satellites include a variety of spacecraft equipped with specific instruments for various scientific and technological missions. These include communications satellites like Starlink; space stations such as the ISS; scientific satellites like the Hubble; Earth observation satellites from companies like Planet Labs, Umbra, and HawkEye 360; GPS; miniature CubeSats for education and research; and military/defense satellites.

Loading next visibility...
Identifier
69109, 2026-108F
Orbit
LEO
Country
Flag of CNCN / PRC
Related business
Manufacturer
SECM
Mission
Operational spacecraft
Bus & Motor
QIANFAN, Unknown motor
Mass
267 kg wet, ~267 kg dry
Launch date (UTC)
2026-05-17 (1 month ago)
Launch vehicle
CHANG ZHENG 8
Launch site
Wenchang Satellite Launch Center (WSC)
Object type
Payload
Rocket body
Debris
Shape & HBR
Unknown shape, 14.5 m
Radar Cross Section
Large (>1 m²)

Expand to show TLE details & history
Last TLE update: 21 hours ago

TLE from 21 hours ago
0 QIANFAN-150
1 69109U 26108F   26170.97179105 -.00000041  00000-0 -35639-4 0  9994
2 69109  89.0123  21.9198 0018588  99.3077 261.0206 14.02932758  4737
Epoch: 2026-06-19T23:19Z
TLE epoch observation values (Epoch: 2026-06-19T23:19:22.746Z)
Latitude
-0.00009°
Longitude
123.88192°
Altitude
888.818 km
Speed
7.407 km/s
True Right ascension
01h 27m 40s
True Declination
0° 00' 00"
Sunlit
Object was in daylight at epoch
Visualization orbit readout
Latitude
Unknown
Longitude
Unknown
Altitude
Unknown
Speed
Unknown
Apparent Right ascension
Unknown
Apparent Declination
Unknown
Sunlit
N/A
Visualization observer readout
Local Sidereal Time
07:15:12
Azimuth
Unknown
Elevation
Unknown
Doppler factor
Unknown
Orbital elements
Apogee altitude
894.125 km
Perigee altitude
867.14 km
Semi-major axis
7,258.77 km
Eccentricity
0.00186
Inclination
89.0123°
RAAN
21.9198°
Arg. of periapsis
99.3077°
True anomaly
260.81028°
Mean anomaly
261.0206°
Eccentric anomaly
260.91543°
Mean motion
3.50953 °/min
Orbital period
102.58 mins
BSTAR
-0.000035639
Loading maneuver chart data...
Computing Atmospheric mass density...
Loading historical data...
Loading historical data...
Loading historical data...
Loading historical data...
Loading historical data...
Loading historical data...
Loading historical data...

Documentation

Showing up to 5 results
|